[[{"header":{"parameterUnit":"m.s-1","parameterCategory":1,"la1":30.2991,"la2":30.254,"lo1":-89.0895,"lo2":-89.0444,"dy":0.0017,"dx":0.0017,"nx":28,"ny":28,"refTime":"2024-11-29T09:00:00:Z","depth":0,"parameterNumber":2,"parameterNumberName":"U-component_of_WINDS"},"data":[0,0,0,0,0,0,0,0,0,0,0,0,0,0,0,0,0,0,0,0,0,0,0,0,0,0,0,0,0,0,0,0,0,0,0,0,0,0,0,0,0,0,0,0,0,0,0,0,0,0,0,0,0,0,0,0,0,0,-3.2457,-3.2458,0,-3.2527,-3.2528,-3.2529,-3.2415,-3.2411,-3.2407,-3.2404,-3.2477,-3.2482,-3.2488,0,0,0,0,0,0,0,0,0,0,0,0,0,-3.2225,-3.2229,-3.2457,-3.2458,-3.2459,-3.2527,-3.2528,-3.2529,-3.2416,-3.2411,-3.2406,-3.2402,-3.2475,-3.2482,-3.2488,0,0,0,0,0,0,0,0,0,0,0,0,0,-3.2313,-3.2231,-3.2457,-3.2411,-3.2407,-3.2527,-3.2528,-3.2529,-3.2417,-3.2411,-3.2405,-3.24,-3.2473,-3.2481,-3.2489,-3.2658,0,0,-3.2515,-3.2519,0,0,0,0,0,0,0,0,-3.2309,-3.2322,-3.2416,-3.2414,-3.241,-3.2456,-3.2473,-3.2573,-3.2418,-3.2413,-3.2404,-3.2397,-3.2475,-3.2483,-3.2509,-3.2662,-3.2665,-3.2516,-3.2521,-3.2524,-3.2527,0,0,0,0,0,0,0,-3.2303,-3.2318,-3.2485,-3.2418,-3.2414,-3.2386,-3.2392,-3.2491,-3.2476,-3.2413,-3.2405,-3.2415,-3.2472,-3.2501,-3.251,-3.2666,-3.2516,-3.2523,-3.2528,-3.2531,-3.296,-3.2966,0,0,0,0,0,0,-3.2302,-3.2314,-3.2483,-3.2487,-3.2344,-3.2395,-3.2402,-3.2448,-3.2475,-3.2473,-3.242,-3.2409,-3.249,-3.25,-3.2512,-3.2712,-3.2524,-3.2532,-3.2537,-3.2954,-3.2962,-3.2969,0,0,0,0,0,0,-3.2297,-3.2318,-3.248,-3.2398,-3.2417,-3.2405,-3.2458,-3.2452,-3.2481,-3.248,-3.2476,-3.2452,-3.2485,-3.25,-3.2623,-3.2713,-3.2536,-3.2544,-3.2947,-3.2956,-3.2965,-3.3114,0,0,0,0,0,0,-3.2291,-3.2317,-3.2382,-3.2401,-3.2422,-3.259,-3.2463,-3.2458,-3.2496,-3.2483,-3.2509,-3.2508,-3.2482,-3.2611,-3.2631,-3.2721,-3.255,-3.2939,-3.2951,-3.2962,-3.3101,-3.3127,-3.315,0,0,0,0,0,-3.2283,-3.2421,-3.2386,-3.2407,-3.2502,-3.2596,-3.2607,-3.2574,-3.2503,-3.2568,-3.2567,-3.2507,-3.2699,-3.2624,-3.2646,-3.274,-3.2933,-3.2947,-3.2961,-3.309,-3.3122,-3.3149,0,0,0,0,0,0,-3.2414,-3.2423,-3.2384,-3.2531,-3.2564,-3.2576,-3.2657,-3.2609,-3.2663,-3.2649,-3.2605,-3.2612,-3.2744,-3.2753,-3.267,-3.2905,-3.2804,-3.2823,-3.2894,-3.2925,-3.2949,-3.2945,-3.2557,0,0,0,0,0,-3.246,-3.2535,-3.2538,-3.2669,-3.2686,-3.2669,-3.2709,-3.268,-3.2712,-3.2725,-3.2733,-3.2766,-3.2833,-3.2879,-3.2941,-3.31,-3.3105,-3.3176,-3.32,-3.322,-3.3239,-3.3324,-3.3355,-3.3016,-3.3016,-3.3015,0,0,-3.2556,-3.257,-3.262,-3.2695,-3.2717,-3.2796,-3.2682,-3.277,-3.2828,-3.2738,-3.2855,-3.2862,-3.2895,-3.3037,-3.31,-3.305,-3.3333,-3.3239,-3.3255,-3.3262,-3.3342,-3.3374,-3.3403,-3.3025,-3.3024,-3.3022,0,0,-3.2771,-3.2789,-3.29,-3.2923,-3.2957,-3.2944,-3.297,-3.299,-3.2991,-3.3106,-3.3041,-3.3108,-3.3226,-3.3253,-3.3282,-3.3505,-3.3453,-3.3527,-3.3656,-3.3739,-3.3766,-3.379,-3.3871,-3.39,-3.3544,-3.3544,-3.3545,0,-3.2887,-3.3003,-3.2963,-3.3056,-3.3091,-3.3011,-3.3123,-3.3148,-3.32,-3.3226,-3.3168,-3.3313,-3.3331,-3.3478,-3.3532,-3.3558,-3.3587,-3.3525,-3.3765,-3.3789,-3.381,-3.3887,-3.3917,-3.3553,-3.3552,-3.3551,-3.355,0,-3.3144,-3.3226,-3.3311,-3.3363,-3.3407,-3.3509,-3.3484,-3.3533,-3.35,-3.3493,-3.3611,-3.3629,-3.3693,-3.3725,-3.3694,-3.3868,-3.3835,-3.3772,-3.3671,-3.3852,-3.3923,-3.3952,-3.3566,-3.3563,-3.356,-3.3558,0,0,-3.3448,-3.3474,-3.3506,-3.3529,-3.3559,-3.3621,-3.3718,-3.3781,-3.3824,-3.3862,-3.3944,-3.4043,-3.3985,-3.4018,-3.3988,-3.4061,-3.4238,-3.3989,-3.3989,-3.4036,-3.4432,-3.4481,-3.4516,-3.4202,-3.4207,-3.4212,-3.4429,0,-3.3663,-3.3832,-3.3798,-3.3963,-3.4038,-3.3963,-3.4047,-3.4075,-3.4071,-3.4133,-3.4127,-3.42,-3.4116,-3.4136,-3.4204,-3.4202,-3.4317,-3.4185,-3.4278,-3.4282,-3.4275,-3.4553,-3.4605,-3.481,-3.4457,-3.4461,-3.4465,0,-3.3939,-3.3987,-3.416,-3.4177,-3.4207,-3.4285,-3.4338,-3.4399,-3.4428,-3.4419,-3.4455,-3.4411,-3.4508,-3.4403,-3.4535,-3.4447,-3.4482,-3.4486,-3.4493,-3.4503,-3.4387,-3.4572,-3.4875,-3.4906,-3.4508,-3.4505,-3.4502,0,-3.4145,-3.4252,-3.437,-3.4391,-3.4414,-3.447,-3.4482,-3.4505,-3.4544,-3.459,-3.4615,-3.4672,-3.4705,-3.475,-3.4722,-3.4648,-3.486,-3.4752,-3.4856,-3.4857,-3.4907,-3.4905,-3.5222,-3.4926,-3.4926,-3.4925,-3.4924,0,-3.4391,-3.4501,-3.4463,-3.4536,-3.4655,-3.4613,-3.4733,-3.4736,-3.4757,-3.4829,-3.4765,-3.4834,-3.4792,-3.4857,-3.4836,-3.495,-3.4964,-3.496,-3.4954,-3.4968,-3.4968,-3.4992,-3.4978,-3.4933,-3.4931,-3.493,-3.4928,0,-3.4644,-3.4622,-3.4745,-3.4756,-3.4761,-3.4849,-3.4858,-3.4925,-3.4914,-3.5006,-3.5025,-3.5009,-3.5082,-3.5058,-3.5137,-3.5122,-3.5267,-3.5241,-3.5258,-3.5252,-3.5359,-3.535,-3.5704,-3.5749,-3.5422,-3.5425,-3.5428,0,-3.4804,-3.4886,-3.4905,-3.4948,-3.4964,-3.5035,-3.5074,-3.5035,-3.5078,-3.5117,-3.518,-3.5247,-3.5299,-3.542,-3.5415,-3.5475,-3.5451,-3.5571,-3.546,-3.5471,-3.5455,-3.5452,-3.546,-3.5594,-3.5598,-3.5601,-3.5604,0,-3.5091,-3.5075,-3.5134,-3.519,-3.5238,-3.528,-3.5316,-3.5355,-3.5318,-3.537,-3.5444,-3.5484,-3.5563,-3.5632,-3.5685,-3.5697,-3.5645,-3.5638,-3.5666,-3.5682,-3.5689,-3.5688,-3.5321,-3.5631,-3.5628,-3.5626,-3.5625,-3.5624,-3.5303,-3.5372,-3.5396,-3.5464,-3.5486,-3.5521,-3.5585,-3.5582,-3.5643,-3.5705,-3.5677,-3.5762,-3.5787,-3.5854,-3.5873,-3.5939,-3.5893,-3.5932,-3.5943,-3.5954,-3.5968,-3.5676,-3.5948,-3.5947,-3.5946,-3.5946,-3.5945,0,-3.5588,-3.5599,-3.5661,-3.5714,-3.5767,-3.5711,-3.5747,-3.5796,-3.5872,-3.5899,-3.5951,-3.6036,-3.6101,-3.61,-3.6161,-3.6214,-3.6192,-3.6231,-3.6228,-3.6232,-3.6005,-3.5976,-3.6248,-3.6248,-3.6248,-3.6248,-3.6248,-3.6248,-3.5743,-3.5858,-3.5846,-3.5971,-3.598,-3.6063,-3.6089,-3.6121,-3.6142,-3.624,-3.6293,-3.6292,-3.6308,-3.6369,-3.6426,-3.6424,-3.645,-3.6499,-3.6489,-3.6278,-3.6248,-3.6219,-3.6192,-3.6505,-3.6505,-3.671,-3.6712,-3.6713]},{"header":{"parameterUnit":"m.s-1","parameterCategory":1,"la1":30.2991,"la2":30.254,"lo1":-89.0895,"lo2":-89.0444,"dy":0.0017,"dx":0.0017,"nx":28,"ny":28,"refTime":"2024-11-29T09:00:00:Z","depth":0,"parameterNumber":3,"parameterNumberName":"V-component_of_WINDS"},"data":[0,0,0,0,0,0,0,0,0,0,0,0,0,0,0,0,0,0,0,0,0,0,0,0,0,0,0,0,0,0,0,0,0,0,0,0,0,0,0,0,0,0,0,0,0,0,0,0,0,0,0,0,0,0,0,0,0,0,-7.3397,-7.3399,0,-7.3513,-7.3515,-7.3516,-7.3408,-7.3403,-7.3399,-7.3395,-7.3508,-7.3515,-7.3522,0,0,0,0,0,0,0,0,0,0,0,0,0,-7.3076,-7.3082,-7.3397,-7.3399,-7.34,-7.3513,-7.3515,-7.3516,-7.3409,-7.3403,-7.3398,-7.3393,-7.3506,-7.3514,-7.3523,0,0,0,0,0,0,0,0,0,0,0,0,0,-7.3206,-7.3084,-7.3397,-7.336,-7.3358,-7.3513,-7.3515,-7.3517,-7.341,-7.3403,-7.3397,-7.3391,-7.3503,-7.3513,-7.3524,-7.3719,0,0,-7.3556,-7.3561,0,0,0,0,0,0,0,0,-7.3199,-7.3218,-7.3364,-7.3363,-7.3361,-7.344,-7.3443,-7.3584,-7.3411,-7.339,-7.3395,-7.3387,-7.349,-7.3501,-7.3537,-7.3724,-7.3729,-7.3557,-7.3564,-7.3568,-7.3571,0,0,0,0,0,0,0,-7.319,-7.3212,-7.3443,-7.3366,-7.3365,-7.3336,-7.3347,-7.3469,-7.3475,-7.3391,-7.3384,-7.3399,-7.3488,-7.3527,-7.3539,-7.3731,-7.3557,-7.3566,-7.3573,-7.3577,-7.4081,-7.4088,0,0,0,0,0,0,-7.3185,-7.3205,-7.3439,-7.3446,-7.3262,-7.3347,-7.3359,-7.3421,-7.3473,-7.3475,-7.3405,-7.3394,-7.3513,-7.3527,-7.3543,-7.3773,-7.3568,-7.3578,-7.3584,-7.4074,-7.4083,-7.409,0,0,0,0,0,0,-7.3179,-7.3207,-7.3435,-7.3324,-7.3351,-7.3359,-7.3429,-7.3427,-7.3466,-7.3484,-7.3483,-7.3444,-7.3508,-7.3528,-7.3676,-7.3776,-7.3583,-7.3592,-7.4066,-7.4077,-7.4086,-7.4237,0,0,0,0,0,0,-7.317,-7.3206,-7.3282,-7.3327,-7.3357,-7.3569,-7.3435,-7.3434,-7.3485,-7.3472,-7.3521,-7.3522,-7.3504,-7.3661,-7.3686,-7.3787,-7.3601,-7.4057,-7.4071,-7.4083,-7.4223,-7.4252,-7.4276,0,0,0,0,0,-7.3159,-7.3319,-7.3286,-7.3315,-7.3453,-7.3575,-7.3592,-7.3569,-7.3494,-7.3569,-7.358,-7.3521,-7.3761,-7.3677,-7.3705,-7.381,-7.405,-7.4067,-7.4082,-7.4211,-7.4246,-7.4275,0,0,0,0,0,0,-7.3284,-7.3324,-7.3288,-7.3468,-7.3519,-7.3556,-7.3651,-7.3607,-7.3679,-7.3664,-7.3631,-7.3643,-7.3799,-7.3819,-7.3725,-7.4,-7.3893,-7.3915,-7.3982,-7.4015,-7.404,-7.4032,-7.3609,0,0,0,0,0,-7.3333,-7.3431,-7.3459,-7.3615,-7.3643,-7.3643,-7.3695,-7.3673,-7.3724,-7.3744,-7.3766,-7.3816,-7.3901,-7.3959,-7.404,-7.4225,-7.4233,-7.4311,-7.4337,-7.4359,-7.4378,-7.4476,-7.451,-7.4142,-7.4142,-7.4142,0,0,-7.3434,-7.3468,-7.3532,-7.3641,-7.3678,-7.3777,-7.3661,-7.3772,-7.3845,-7.376,-7.3902,-7.3919,-7.3972,-7.414,-7.4214,-7.4161,-7.4482,-7.4379,-7.4396,-7.4404,-7.4496,-7.4531,-7.4562,-7.4153,-7.4151,-7.4149,0,0,-7.367,-7.3706,-7.3839,-7.3878,-7.3936,-7.3935,-7.3967,-7.4011,-7.402,-7.4161,-7.4099,-7.4184,-7.4334,-7.4374,-7.4414,-7.4662,-7.461,-7.4689,-7.4826,-7.4922,-7.4951,-7.4976,-7.5063,-7.5095,-7.4708,-7.4709,-7.4709,0,-7.3788,-7.3938,-7.3912,-7.4028,-7.4076,-7.4006,-7.4138,-7.4177,-7.4258,-7.4292,-7.4231,-7.4417,-7.4447,-7.4622,-7.4683,-7.4718,-7.4751,-7.4683,-7.4949,-7.4974,-7.4997,-7.508,-7.5113,-7.4718,-7.4717,-7.4716,-7.4715,0,-7.4079,-7.4184,-7.4284,-7.4365,-7.4424,-7.4548,-7.4539,-7.4602,-7.4575,-7.4579,-7.4722,-7.4757,-7.4842,-7.4882,-7.4856,-7.5053,-7.5018,-7.4954,-7.4845,-7.5042,-7.5119,-7.5151,-7.4731,-7.4728,-7.4725,-7.4723,0,0,-7.4397,-7.4462,-7.4499,-7.4534,-7.4592,-7.4671,-7.479,-7.4875,-7.4929,-7.4986,-7.5084,-7.5211,-7.5152,-7.5197,-7.5175,-7.5259,-7.5452,-7.5184,-7.5185,-7.5232,-7.5668,-7.5716,-7.5753,-7.5417,-7.5423,-7.5428,-7.5663,0,-7.4634,-7.4843,-7.4823,-7.502,-7.5115,-7.5048,-7.5151,-7.5196,-7.5203,-7.5283,-7.5288,-7.5379,-7.5295,-7.5322,-7.5402,-7.5412,-7.5539,-7.5394,-7.5505,-7.551,-7.5494,-7.5794,-7.5844,-7.6065,-7.5693,-7.5699,-7.5702,0,-7.4938,-7.5008,-7.5215,-7.5257,-7.5296,-7.5389,-7.5464,-7.5542,-7.5591,-7.5589,-7.564,-7.5602,-7.5719,-7.5608,-7.5767,-7.5669,-7.5713,-7.5724,-7.5732,-7.5741,-7.5618,-7.581,-7.6135,-7.6168,-7.575,-7.5746,-7.5743,0,-7.5148,-7.5293,-7.5435,-7.5468,-7.552,-7.5587,-7.5612,-7.5654,-7.5706,-7.5771,-7.5803,-7.5881,-7.5923,-7.5982,-7.5965,-7.5887,-7.6128,-7.6016,-7.6128,-7.6128,-7.6181,-7.6178,-7.6518,-7.6211,-7.6211,-7.621,-7.621,0,-7.5414,-7.5543,-7.553,-7.5618,-7.576,-7.5734,-7.5874,-7.589,-7.5928,-7.6015,-7.5962,-7.6044,-7.6017,-7.6098,-7.6085,-7.6218,-7.6237,-7.6238,-7.6233,-7.6243,-7.6243,-7.6271,-7.6254,-7.6219,-7.6217,-7.6215,-7.6214,0,-7.5672,-7.567,-7.582,-7.5858,-7.587,-7.5973,-7.6003,-7.6084,-7.6086,-7.6197,-7.6222,-7.6224,-7.6316,-7.6306,-7.6408,-7.6399,-7.6564,-7.654,-7.6548,-7.6543,-7.6655,-7.6644,-7.7023,-7.7071,-7.6735,-7.6738,-7.6741,0,-7.5842,-7.594,-7.5988,-7.6044,-7.6073,-7.6164,-7.6216,-7.6194,-7.625,-7.6312,-7.6385,-7.6473,-7.6541,-7.6691,-7.6701,-7.6778,-7.6756,-7.6883,-7.6767,-7.6773,-7.6756,-7.675,-7.6759,-7.6906,-7.691,-7.6913,-7.6915,0,-7.6143,-7.6136,-7.6216,-7.6295,-7.6359,-7.642,-7.6474,-7.6522,-7.6504,-7.657,-7.6664,-7.6718,-7.6822,-7.6909,-7.6982,-7.7004,-7.6957,-7.6952,-7.6982,-7.6992,-7.6992,-7.6993,-7.661,-7.6943,-7.6941,-7.6938,-7.6937,-7.6936,-7.6362,-7.6445,-7.6492,-7.6581,-7.662,-7.6672,-7.6749,-7.6761,-7.684,-7.6925,-7.6906,-7.7012,-7.7055,-7.7148,-7.7178,-7.7259,-7.7212,-7.7255,-7.7266,-7.7277,-7.729,-7.698,-7.7272,-7.7271,-7.727,-7.727,-7.7269,0,-7.6659,-7.6685,-7.6768,-7.6846,-7.6916,-7.6867,-7.6924,-7.6985,-7.708,-7.7125,-7.7194,-7.7301,-7.7384,-7.74,-7.7479,-7.754,-7.7521,-7.7562,-7.7557,-7.7562,-7.7328,-7.7294,-7.7577,-7.7577,-7.7577,-7.7576,-7.7576,-7.7576,-7.6822,-7.696,-7.6958,-7.7114,-7.7138,-7.7243,-7.728,-7.7326,-7.7363,-7.7485,-7.7555,-7.7565,-7.7598,-7.7679,-7.7752,-7.7754,-7.7785,-7.7835,-7.7829,-7.761,-7.7579,-7.755,-7.7517,-7.7842,-7.7843,-7.8056,-7.8058,-7.8059]}]]